SL-16 DEB, 22603

Orbit data source: Space-Track

SL-16 DEB, 22603 is space debris in LEO originally from a launch on Fri, 26 Mar 1993 UTC launched from the Tyuratam Missile And Space Complex (TTMTR). Debris objects in space refer to the collection of defunct objects orbiting the Earth. Examples of debris include non-operational satellites, rocket bodies, and fragments generated from explosions, collisions, or faulty payload assembly.

Loading next visibility...
Identifier
22603, 1993-016M
Orbit
LEO
Country
Flag of CISCIS
Related business
Manufacturer
Unknown
Mission
Spacecraft
Bus & Motor
Unknown
Mass
Unknown
Launch date (UTC)
1993-03-26 (33 years ago)
Launch vehicle
Unknown
Launch site
Tyuratam Missile And Space Complex (TTMTR)
Object type
Payload
Rocket body
Debris
Shape & HBR
Unknown shape, 0.3 m
Radar Cross Section
Medium (>0.1 m² and <1 m²)

Expand to show TLE details & history
Last TLE update: 14 hours ago

TLE from 14 hours ago
0 SL-16 DEB
1 22603U 93016M   26255.04742022 -.00000046  00000-0 -12396-5 0  9991
2 22603  70.9941 227.9878 0161295 243.8923 181.7367 13.78758667683551
Epoch: 2026-09-12T01:08Z
TLE epoch observation values (Epoch: 2026-09-12T01:08:17.107Z)
Latitude
59.51899°
Longitude
-104.53983°
Altitude
1,096.307 km
Speed
7.251 km/s
True Right ascension
17h 34m 22s
True Declination
59° 22' 31"
Sunlit
Object was in daylight at epoch
Visualization orbit readout
Latitude
Unknown
Longitude
Unknown
Altitude
Unknown
Speed
Unknown
Apparent Right ascension
Unknown
Apparent Declination
Unknown
Sunlit
N/A
Visualization observer readout
Local Sidereal Time
07:40:21
Azimuth
Unknown
Elevation
Unknown
Doppler factor
Unknown
Orbital elements
Apogee altitude
1,084.715 km
Perigee altitude
847.792 km
Semi-major axis
7,344.39 km
Eccentricity
0.01613
Inclination
70.9941°
RAAN
227.9878°
Arg. of periapsis
243.8923°
True anomaly
181.68179°
Mean anomaly
181.7367°
Eccentric anomaly
181.70914°
Mean motion
3.44834 °/min
Orbital period
104.4 mins
BSTAR
-0.0000012396
Loading maneuver chart data...
Computing Atmospheric mass density...
Loading historical data...
Loading historical data...
Loading historical data...
Loading historical data...
Loading historical data...
Loading historical data...
Loading historical data...

Documentation

Showing up to 5 results
|